Location: Beuerbach
(48.1459°N, 10.9174°E)
Time: 22:46:22
(UTC+00:00)

COSMOS 2428 - Pass Details

Date: 23 May 2024
Orbit: 844 x 856 km, 70.9° (Epoch: 14 June)

Event Time Altitude Azimuth Distance (km) Brightness Sun altitude
Rises 01:57:23 0° 335° (NNW) 3,415 6.2 -12.0°
Reaches altitude 10° 02:00:00 10° 343° (NNW) 2,477 5.6 -11.7°
Maximum altitude 02:05:21 40° 53° (NE) 1,224 4.2 -11.2°
Drops below altitude 10° 02:10:40 10° 122° (ESE) 2,469 5.3 -10.6°
Sets 02:13:16 0° 130° (SE) 3,403 5.9 -10.3°
